Regional Weather Roundup
Issued by NWS Jackson, KY

Home | Current Version | Previous Version | Text Only | Print | Product List | Glossary On
Versions: 1 2 3 4 5 6 7 8 9 10 11 12 13 14 15 16 17 18 19 20 21 22 23 24 25 26 27 28 29 30 31 32 33 34 35 36 37 38 39 40 41 42 43 44 45 46 47 48 49 50
000
ASUS43 KJKL 120410
RWRJKL

EAST KENTUCKY HOURLY WEATHER ROUNDUP
NATIONAL WEATHER SERVICE JACKSON KY
1100 PM EST THU FEB 11 2016

NOTE: "FAIR" INDICATES FEW OR NO CLOUDS BELOW 12,000 FEET WITH
NO SIGNIFICANT WEATHER AND/OR OBSTRUCTIONS TO VISIBILITY.

* THESE REPORTS ARE NOT UNDER NWS QUALITY CONTROL AND MAY NOT
  REPORT WEATHER SUCH AS PRECIPITATION AND FOG.

KYZ079-080-083-085-087-088-110-112-115-119-120-120500
...EASTERN KENTUCKY...

CITY           SKY/WX    TMP DP  RH WIND       PRES   REMARKS
JACKSON        MOCLDY    23   9  55 CALM      30.25F
LONDON         CLOUDY    26   9  48 E5        30.25F WCI  20
SOMERSET*      CLOUDY    27  10  50 CALM      30.28S
MONTICELLO*    CLOUDY    28  16  60 W6        30.27F WCI  22
WILLIAMSBURG*  PTCLDY    28  10  47 CALM      30.26S
MIDDLESBORO*   CLOUDY    26  21  80 CALM      30.26S
HARLAN APT*    CLOUDY    27  18  69 CALM      30.23F
BLACK MTN*       N/A     18   9  68 SW2         N/A
BIG SANDY*     PTCLDY    22   9  57 CALM      30.27F
MOREHEAD APT*  CLOUDY    21   5  49 CALM      30.30F
$$

KYZ035-036-041-042-044-050-067-078-099-120500
...CENTRAL KENTUCKY...

CITY           SKY/WX    TMP DP  RH WIND       PRES   REMARKS
MT STERLING*   PTCLDY    23  12  63 E5        30.29F WCI  17
DANVILLE*      CLOUDY    27  16  63 CALM      30.27F
RICHMOND*      CLOUDY    25  14  63 E3        30.26F
LEXINGTON      MOCLDY    24  13  62 E5        30.26F WCI  18
FRANKFORT      CLOUDY    25  10  53 E5        30.27F WCI  19
$$

KYZ091>093-OHZ055-061-077-WVZ005-015-034-035-042-120500
...SOUTHERN OHIO/WEST VIRGINIA...

CITY           SKY/WX    TMP DP  RH WIND       PRES   REMARKS
COVINGTON      MOCLDY    20   9  62 E3        30.28F
COLUMBUS       CLOUDY    14   7  73 CALM      30.28F
DAYTON         PTCLDY    17   8  67 CALM      30.28S
WILMINGTON     CLOUDY     9   4  80 SE3       30.27F
HUNTINGTON       N/A     20   5  52 E5        30.30F WCI  13
CHARLESTON       N/A     15   6  67 CALM      30.30R
PINEVILLE*       N/A     15  10  77 MISG      30.28R
BECKLEY          N/A     12   2  64 CALM      30.17S
$$

VAZ002-007-008-TNZ017-027-036-066-071-120500
...SOUTHWEST VIRGINIA/EAST TENNESSEE...

CITY           SKY/WX    TMP DP  RH WIND       PRES   REMARKS
BRISTOL        MOCLDY    26  17  68 CALM      30.23R
KNOXVILLE      MOCLDY    31  20  63 NE7       30.24F WCI  24
OAK RIDGE      CLOUDY    32  17  54 NE3       30.26S
CROSSVILLE     PTCLDY    29  19  66 NE5       30.21S WCI  24
NASHVILLE      CLOUDY    35  19  52 E7        30.25F WCI  29
$$

...KEY TO REMARKS...
VSB - VISIBILITY IN MILES
WCI - WIND CHILL INDEX
HX  - HEAT INDEX

$$



USA.gov is the U.S. government's official web portal to all federal, state and local government web resources and services.